Other Public Products
Issued by NWS Grand Forks, ND

Home | Current Version | Previous Version | Text Only | Print | Product List | Glossary On
Versions: 1 2 3 4 5 6 7 8 9 10 11 12 13 14 15 16 17 18 19 20 21 22 23 24 25 26 27 28 29 30 31 32 33 34 35 36 37 38 39 40 41 42 43 44 45 46 47 48 49 50
000
FPUS83 KFGF 240031
OPUFGF
PRAIRIE TO PINES WEATHER ROUNDUP
NATIONAL WEATHER SERVICE EASTERN NORTH DAKOTA/GRAND FORKS ND
600 PM CST THU NOV 23 2017

 **SATELLITE DATA USED TO AUGMENT SKY COVER AT AUTOMATED STATIONS**
 *****  WEATHER ACROSS EASTERN NORTH DAKOTA  *****

CITY           SKY/WX    TMP DP  RH WIND       PRES   REMARKS
GRAND FORKS    MOCLDY    38  32  79 S15       29.46F
6HR MIN TEMP:  31; 6HR MAX TEMP:  39;

GRND FORKS AFB MOCLDY    38  33  81 S8        29.45F
GRND FORKS NWS   N/A     36 N/A N/A S15         N/A
BUXTON           N/A    N/A N/A N/A CALM        N/A
DEVILS LAKE    FAIR      44  37  76 SW15      29.41F
6HR MIN TEMP:  32; 6HR MAX TEMP:  44;

FARGO          FAIR      44  31  60 S16       29.54F
6HR MIN TEMP:  34; 6HR MAX TEMP:  47;

WAHPETON ARPT  NOT AVBL
$$

 *****  WEATHER ACROSS CENTRAL AND WESTERN NORTH DAKOTA  *****

CITY           SKY/WX    TMP DP  RH WIND       PRES   REMARKS
JAMESTOWN      FAIR      50  39  66 S13       29.50F
6HR MIN TEMP:  47; 6HR MAX TEMP:  58;

BISMARCK       FAIR      59  38  45 SW5       29.52F
6HR MIN TEMP:  54; 6HR MAX TEMP:  74;

MINOT          FAIR      53  38  56 SW12      29.39F
6HR MIN TEMP:  53; 6HR MAX TEMP:  63;

MINOT AFB      FAIR      56  38  51 W15       29.37F
6HR MIN TEMP:  55; 6HR MAX TEMP:  64;

GARRISON         N/A     52  38  58 W15       29.46F
6HR MIN TEMP:  46; 6HR MAX TEMP:  62; 6HR PCP:  0.01;

WILLISTON      FAIR      56  37  49 SW12      29.45F
6HR MIN TEMP:  51; 6HR MAX TEMP:  68;

DICKINSON      FAIR      59  36  42 W14       29.54F
6HR MIN TEMP:  59; 6HR MAX TEMP:  70;

HETTINGER      FAIR      58  33  39 SW12      29.62F
6HR MIN TEMP:  58; 6HR MAX TEMP:  74;

$$

 *****  OTHER OBSERVATIONS NORTHEAST NORTH DAKOTA  *****

CITY           SKY/WX    TMP DP  RH WIND       PRES   REMARKS
WALHALLA       FAIR      34  34 100 S9        29.36F
LANGDON        FAIR      37  37 100 SW17      29.35F
CAVALIER       FAIR      32  30  93 S14       29.38F WCI  22
GRAFTON        FAIR      34  32  93 S13       29.43F WCI  25
CANDO          FAIR      37  37 100 S7        29.40F
FORT TOTTEN      N/A     49  39  67 SW9       29.95S
ROLLA          FAIR      39  37  93 SW12      29.35F
RUGBY          FAIR      46  39  76 SW15      29.37F
 ***** THE ABOVE OBSERVATIONS ARE NON NWS ARE NOT QUALITY
        CONTROLLED AND MAY MIS-REPORT RAIN FOR SNOW...
$$

 *****  OTHER OBSERVATIONS SOUTHEAST NORTH DAKOTA *****

CITY           SKY/WX    TMP DP  RH WIND       PRES   REMARKS
COOPERSTOWN    FAIR      45  37  76 S14       29.46F
VALLEY CITY    FAIR      50  41  71 S15       29.50F
OAKES            N/A     48  37  66 S16       29.56F
GWINNER          N/A     48  37  66 SW15      29.56F
SHEYENNE NWR     N/A     49  37  64 SW8       29.95S
BUFFALO          N/A     43  32  64 SE13        N/A
WYNDMERE       NOT AVBL
 ***** THE ABOVE OBSERVATIONS ARE NON NWS ARE NOT QUALITY
       CONTROLLED AND MAY MIS-REPORT RAIN FOR SNOW...
$$

  *****  WEATHER ACROSS NORTHERN MINNESOTA  *****

CITY           SKY/WX    TMP DP  RH WIND       PRES   REMARKS
FLAG ISLAND    CLOUDY    27  25  93 S18       29.49F WCI  13
WARROAD        FAIR      28  25  86 SE8       29.49F WCI  20
ROSEAU         FAIR      30  25  80 S8        29.47F WCI  23
HALLOCK        MOCLDY    34  30  86 S16       29.42F WCI  23
THF RVR FALLS  FAIR      30  28  92 SE9       29.50F WCI  22
6HR MIN TEMP:  29; 6HR MAX TEMP:  32; 6HR PCP: TRACE;

HALSTAD          N/A     39  28  65 S16         N/A
FOSSTON        FAIR      34  28  80 S12       29.51F
BAUDETTE       FAIR      26  23  88 SE9       29.52F WCI  17
6HR MIN TEMP:  25; 6HR MAX TEMP:  31;

WASKISH        FAIR      28  25  86 SE6       29.52F WCI  22
CROOKSTON      MOCLDY    39  30  70 S17G24    29.47F
$$
  *****  WEATHER ACROSS CENTRAL AND WEST MINNESOTA  *****

CITY           SKY/WX    TMP DP  RH WIND       PRES   REMARKS
BEMIDJI        FAIR      31  27  83 S7        29.54F WCI  24
6HR MIN TEMP:  25; 6HR MAX TEMP:  34;

PARK RAPIDS    FAIR      38  29  70 S10       29.59F
6HR MIN TEMP:  32; 6HR MAX TEMP:  43;

WADENA         FAIR      36  28  75 S7        29.60F
DETROIT LAKES  FAIR      37  30  75 S10       29.57F
MOORHEAD       FAIR      41  28  60 S15       29.55F
FERGUS FALLS   FAIR      41  30  65 S13       29.61F
ELBOW LAKE     MOCLDY    41  31  67 S13       29.61F
MORRIS MN      FAIR      39  28  65 SE12      29.62F
STAPLES        FAIR      36  27  69 S9        29.63F
WHEATON        FAIR      48  36  61 S8        29.61F
$$
  *****  WEATHER ELSEWHERE ACROSS MINNESOTA  *****

CITY           SKY/WX    TMP DP  RH WIND       PRES   REMARKS
DULUTH         CLOUDY    35  25  66 S13       29.67F
6HR MIN TEMP:  30; 6HR MAX TEMP:  35;

INTRNTL FALLS  FAIR      28  21  75 SE5       29.57F WCI  23
6HR MIN TEMP:  26; 6HR MAX TEMP:  31;

ELY            FAIR      32  25  74 S7        29.61F
CLOQUET        CLOUDY    36  23  60 S5        29.66F
BRAINERD       FAIR      37  26  64 S10       29.65F
6HR MIN TEMP:  35; 6HR MAX TEMP:  42;

HIBBING        FAIR      32  24  72 S5        29.62F
6HR MIN TEMP:  30; 6HR MAX TEMP:  35;

ALEXANDRIA     FAIR      40  30  67 S9        29.64F
6HR MIN TEMP:  38; 6HR MAX TEMP:  44;

SAINT CLOUD    FAIR      37  27  67 SE9       29.70F
6HR MIN TEMP:  37; 6HR MAX TEMP:  44;

MINNEAPOLIS    MOCLDY    43  27  53 S9        29.76F
6HR MIN TEMP:  38; 6HR MAX TEMP:  45;

$$

  *****  WEATHER ACROSS SOUTH DAKOTA  *****

CITY           SKY/WX    TMP DP  RH WIND       PRES   REMARKS
SIOUX FALLS    CLOUDY    55  39  54 S9        29.73F
6HR MIN TEMP:  48; 6HR MAX TEMP:  59;

BROOKINGS      FAIR      50  37  61 S12       29.70F
WATERTOWN      FAIR      48  37  65 S14       29.65F
6HR MIN TEMP:  45; 6HR MAX TEMP:  57;

HURON          FAIR      53  40  61 S9        29.66F
6HR MIN TEMP:  49; 6HR MAX TEMP:  59;

SISSETON         N/A     55  39  54 SW28G33   29.57F
ABERDEEN       FAIR      47  38  71 S9        29.62F
6HR MIN TEMP:  47; 6HR MAX TEMP:  59;

MITCHELL       FAIR      60  42  51 S8        29.70F
PIERRE         FAIR      59  40  49 S7        29.64F
6HR MIN TEMP:  57; 6HR MAX TEMP:  70;

MOBRIDGE       FAIR      59  40  49 S9        29.57F
RAPID CITY     FAIR      63  32  31 W13       29.71F
6HR MIN TEMP:  62; 6HR MAX TEMP:  75;

$$

  *****  SOME WEATHER IN NEARBY STATES *****

CITY           SKY/WX    TMP DP  RH WIND       PRES   REMARKS
GLASGOW MT     FAIR      65  36  34 W16G26    29.46F
6HR MIN TEMP:  62; 6HR MAX TEMP:  73;

GREAT FALLS MT FAIR      55  39  54 W29G43    29.57F
6HR MIN TEMP:  55; 6HR MAX TEMP:  68;

CHEYENNE WY    FAIR      59  30  33 W23       30.01F
6HR MIN TEMP:  58; 6HR MAX TEMP:  64;

SCOTTSBLUFF NE FAIR      57  36  45 W9        29.87F
6HR MIN TEMP:  57; 6HR MAX TEMP:  73;

OMAHA NE       FAIR      51  37  58 S10       29.85F
6HR MIN TEMP:  50; 6HR MAX TEMP:  62;

DES MOINES IA  FAIR      46  31  55 SE7       29.89F
6HR MIN TEMP:  46; 6HR MAX TEMP:  54;

DAVENPORT IA   FAIR      35  25  66 S6        29.94S
6HR MIN TEMP:  34; 6HR MAX TEMP:  48;

CHICAGO IL     FAIR      40  25  55 SW3       29.94R
6HR MIN TEMP:  40; 6HR MAX TEMP:  46;

EAU CLAIRE WI  FAIR      32  21  64 S6        29.80F
6HR MIN TEMP:  31; 6HR MAX TEMP:  42;

LA CROSSE WI   FAIR      36  23  59 SE5       29.86R
6HR MIN TEMP:  36; 6HR MAX TEMP:  46;

$$

  *****  SOME NATIONAL WEATHER *****

CITY           SKY/WX    TMP DP  RH WIND       PRES   REMARKS
LA GUARDIA NY  MOCLDY    43  19  38 W9        30.02R


USA.gov is the U.S. government's official web portal to all federal, state and local government web resources and services.